This is the latest recevied weather packets stored in our database for station/object N3WPH. If no packets are shown the sender has not sent any weather packets the latest 10 day(s).
| Time | Temp. | Humidity | Pressure | Rain* | Wind** | Luminosity | Snow |
|---|---|---|---|---|---|---|---|
| 1778029726 | 20° C | 53% | 1008.1 hPa | 0 mm | - | 0 W/m² | - |
| 1778029425 | 20.56° C | 51% | 1008.1 hPa | 0 mm | - | 0 W/m² | - |
| 1778029121 | 21.11° C | 48% | 1008.1 hPa | 0 mm | - | 0 W/m² | - |
| 1778028818 | 21.67° C | 47% | 1007.7 hPa | 0 mm | - | 0 W/m² | - |
| 1778028513 | 21.67° C | 46% | 1007.9 hPa | 0 mm | - | 0 W/m² | - |
| 1778028212 | 21.67° C | 45% | 1007.6 hPa | 0 mm | - | 0 W/m² | - |
| 1778027907 | 22.22° C | 45% | 1007.8 hPa | 0 mm | - | 0 W/m² | - |
| 1778027604 | 22.22° C | 45% | 1007.7 hPa | 0 mm | - | 0 W/m² | - |
| 1778027300 | 22.22° C | 45% | 1007.8 hPa | 0 mm | - | 0 W/m² | - |
| 1778026997 | 23.33° C | 43% | 1007.9 hPa | 0 mm | - | 0 W/m² | - |
| 1778026693 | 23.33° C | 42% | 1007.7 hPa | 0 mm | - | 0 W/m² | - |
| 1778026390 | 23.33° C | 42% | 1007.6 hPa | 0 mm | - | 0 W/m² | - |
| 1778026087 | 23.33° C | 42% | 1007.7 hPa | 0 mm | - | 0 W/m² | - |
| 1778025784 | 23.33° C | 41% | 1007.6 hPa | 0 mm | - | 0 W/m² | - |
| 1778025481 | 23.33° C | 41% | 1007.7 hPa | 0 mm | - | 0 W/m² | - |
| 1778025179 | 23.89° C | 41% | 1007.5 hPa | 0 mm | - | 1 W/m² | - |
| 1778024875 | 23.89° C | 40% | 1007.3 hPa | 0 mm | - | 2 W/m² | - |
| 1778024573 | 23.89° C | 40% | 1007.5 hPa | 0 mm | - | 5 W/m² | - |
| 1778024270 | 23.89° C | 40% | 1007.4 hPa | 0 mm | - | 7 W/m² | - |
| 1778023968 | 23.89° C | 40% | 1007.2 hPa | 0 mm | - | 6 W/m² | - |
| 1778023665 | 23.89° C | 39% | 1007.3 hPa | 0 mm | - | 11 W/m² | - |
| 1778023362 | 23.89° C | 39% | 1007.4 hPa | 0 mm | - | 13 W/m² | - |
| 1778023058 | 23.89° C | 40% | 1007.1 hPa | 0 mm | - | 12 W/m² | - |
| 1778022758 | 24.44° C | 39% | 1007.2 hPa | 0 mm | - | 11 W/m² | - |
| 1778022455 | 23.89° C | 40% | 1007 hPa | 0 mm | - | 7 W/m² | - |
* Rain latest hour (hover to see other rain measurements)
** Current wind speed in m/s (hover to see current wind gust speed)